Location: Unspecified
(38.5482°N, 1.4063°W)
Time: 07:22:51
(UTC+00:00)

ISS - Visible Passes

Search period start: 20 November 2018 00:00
Search period end: 30 November 2018 00:00
Orbit: 401 x 408 km, 51.6° (Epoch: 20 November)

Date Brightness Start Highest point End Pass type
(mag) Time Alt. Az. Time Alt. Az. Time Alt. Az.
21 Nov -1.5 18:29:20 10° S 18:30:17 15° SSE 18:30:17 15° SSE visible
22 Nov -1.4 17:39:38 10° SE 17:39:54 10° SE 17:40:11 10° ESE visible
22 Nov -0.9 19:12:41 10° SW 19:13:26 16° WSW 19:13:26 16° WSW visible
23 Nov -3.6 18:20:39 10° SW 18:23:47 53° SE 18:23:47 53° SE visible
24 Nov -2.5 17:29:01 10° S 17:31:47 26° SE 17:34:02 13° E visible
24 Nov -1.3 19:05:14 10° W 19:06:43 21° WNW 19:06:43 21° WNW visible
25 Nov -3.4 18:12:44 10° WSW 18:15:56 57° NW 18:16:53 38° NNE visible
26 Nov -3.8 17:20:31 10° SW 17:23:45 71° SE 17:26:58 10° NE visible
26 Nov -1.2 18:58:14 10° WNW 18:59:38 16° NW 18:59:38 16° NW visible
27 Nov -2.1 18:05:20 10° W 18:08:09 26° NNW 18:09:38 19° NNE visible
28 Nov -3.0 17:12:42 10° WSW 17:15:50 45° NW 17:18:59 10° NE visible
28 Nov -0.9 18:51:41 10° NW 18:52:14 11° NNW 18:52:14 11° NNW visible
29 Nov -1.5 17:58:23 10° WNW 18:00:28 16° NNW 18:02:07 12° NNE visible
